This is the latest recevied weather packets stored in our database for station/object BRIVER. If no packets are shown the sender has not sent any weather packets the latest 10 day(s).
| Time | Temp. | Humidity | Pressure | Rain* | Wind** | Luminosity | Snow |
|---|---|---|---|---|---|---|---|
| 1777506041 | 12.22° C | 65% | 1019.6 hPa | 0 mm | - | - | - |
| 1777505741 | 12.78° C | 64% | 1019.6 hPa | 0 mm | - | - | - |
| 1777505441 | 12.22° C | 65% | 1019.6 hPa | 0 mm | - | - | - |
| 1777505141 | 11.67° C | 66% | 1019.7 hPa | 0 mm | - | - | - |
| 1777504962 | 11.67° C | 66% | 1019.7 hPa | 0 mm | - | - | - |
| 1777504841 | 12.22° C | 65% | 1019.7 hPa | 0 mm | - | - | - |
| 1777504541 | 12.22° C | 64% | 1019.7 hPa | 0 mm | - | - | - |
| 1777504422 | 12.22° C | 66% | 1019.7 hPa | 0 mm | - | - | - |
| 1777504241 | 12.22° C | 67% | 1019.8 hPa | 0 mm | - | - | - |
| 1777503941 | 12.22° C | 65% | 1019.8 hPa | 0 mm | - | - | - |
| 1777503882 | 12.22° C | 64% | 1019.7 hPa | 0 mm | - | - | - |
| 1777503641 | 12.22° C | 66% | 1019.9 hPa | 0 mm | - | - | - |
| 1777503341 | 12.22° C | 65% | 1019.9 hPa | 0 mm | - | - | - |
| 1777503041 | 12.22° C | 64% | 1019.9 hPa | 0 mm | - | - | - |
| 1777502802 | 12.22° C | 64% | 1019.9 hPa | 0 mm | - | - | - |
| 1777502743 | 12.22° C | 64% | 1020 hPa | 0 mm | - | - | - |
| 1777502441 | 12.22° C | 61% | 1019.9 hPa | 0 mm | - | - | - |
| 1777502262 | 12.22° C | 61% | 1020 hPa | 0 mm | - | - | - |
| 1777502141 | 12.22° C | 62% | 1020 hPa | 0 mm | - | - | - |
| 1777501841 | 12.22° C | 62% | 1020.1 hPa | 0 mm | - | - | - |
| 1777501722 | 12.22° C | 62% | 1020 hPa | 0 mm | - | - | - |
| 1777501541 | 11.67° C | 62% | 1020.2 hPa | 0 mm | - | - | - |
| 1777501241 | 12.22° C | 60% | 1020.2 hPa | 0 mm | - | - | - |
| 1777501182 | 12.22° C | 62% | 1020.1 hPa | 0 mm | - | - | - |
| 1777500941 | 12.22° C | 62% | 1020.2 hPa | 0 mm | - | - | - |
* Rain latest hour (hover to see other rain measurements)
** Current wind speed in m/s (hover to see current wind gust speed)